Date String (YYYY-MM-DD hh:mm:ss) UTC,Instrument flags,Ambient pressure (hPa),Sample flow (lpm),Bypass flow (lpm),Sample temperature (°C),Ambient temperature (°C),ASC tube jacket temperature (°C),LED temperature (°C),Box temperature (°C),Sample RH (%),Span deviation,Mass concentration (μg/m³),Mass concentration (μg/m³),Mass concentration (μg/m³)
DateTimeUTC,F1_M11,P_M11,Q1_M11,Q2_M11,T1_M11,T2_M11,T3_M11,T4_M11,T5_M11,U1_M11,ZSPAN_M11,X0_M11,X2_M11,X1_M11
2022-01-22 01:00:00,,0831.6,4.99,0.00,22.2,21.6,00.0,31.2,24.0,18.0,-000.6,0006.64,0003.37,0003.25
2022-01-22 01:01:00,,0831.7,5.01,0.00,22.2,21.6,00.0,31.2,24.0,18.0,-000.8,0006.54,0003.34,0003.23
2022-01-22 01:02:00,,0831.7,4.99,0.00,22.2,21.6,00.0,31.2,24.0,17.9,-000.8,0005.91,0003.31,0003.21
2022-01-22 01:03:00,,0831.7,5.01,0.00,22.2,21.6,00.0,31.2,24.0,17.9,-000.1,0005.38,0003.30,0003.20
2022-01-22 01:04:00,,0831.7,4.99,0.00,22.2,21.6,00.0,31.2,24.0,17.9,0000.0,0005.30,0003.27,0003.19
2022-01-22 01:05:00,,0831.7,5.02,0.00,22.2,21.6,00.0,31.2,24.0,17.9,0000.0,0005.25,0003.25,0003.17
2022-01-22 01:06:00,,0831.8,4.98,0.00,22.2,21.6,00.0,31.2,24.0,17.9,0000.0,0005.26,0003.24,0003.16
2022-01-22 01:07:00,,0831.9,5.01,0.00,22.2,21.6,00.0,31.2,24.0,18.0,0000.0,0005.01,0003.24,0003.15
2022-01-22 01:08:00,,0831.9,5.01,0.00,22.2,21.6,00.0,31.2,24.0,18.0,0000.0,0004.34,0003.22,0003.14
2022-01-22 01:09:00,,0832.0,4.98,0.00,22.2,21.6,00.0,31.2,24.0,18.1,0000.0,0004.97,0003.23,0003.13
2022-01-22 01:10:00,,0832.0,5.02,0.00,22.2,21.6,00.0,31.2,24.0,18.0,0000.0,0005.01,0003.23,0003.12
2022-01-22 01:11:00,,0832.0,4.99,0.00,22.2,21.6,00.0,31.2,24.0,18.0,0000.0,0005.02,0003.23,0003.10
2022-01-22 01:12:00,,0832.0,5.00,0.00,22.2,21.6,00.0,31.2,24.0,18.0,0000.0,0004.99,0003.22,0003.08
2022-01-22 01:13:00,,0832.0,5.01,0.00,22.2,21.6,00.0,31.2,24.0,18.0,0000.0,0005.08,0003.23,0003.08
2022-01-22 01:14:00,,0832.1,4.99,0.00,22.2,21.6,00.0,31.2,24.0,18.0,0000.0,0005.14,0003.23,0003.07
2022-01-22 01:15:00,,0832.1,5.00,0.00,22.2,21.6,00.0,31.2,24.0,18.0,0000.0,0005.33,0003.24,0003.06
2022-01-22 01:16:00,,0832.1,5.00,0.00,22.2,21.6,00.0,31.2,24.0,18.0,0000.0,0005.57,0003.25,0003.07
2022-01-22 01:17:00,,0832.1,4.99,0.00,22.2,21.6,00.0,31.2,24.0,17.9,0000.0,0005.68,0003.27,0003.09
2022-01-22 01:18:00,,0832.1,5.02,0.00,22.2,21.6,00.0,31.2,24.0,17.9,0000.0,0005.83,0003.29,0003.12
2022-01-22 01:19:00,,0832.1,4.99,0.00,22.2,21.6,00.0,31.1,24.0,17.9,0000.0,0005.87,0003.31,0003.13
2022-01-22 01:20:00,,0832.1,5.01,0.00,22.2,21.6,00.0,31.1,24.0,18.0,0000.0,0005.20,0003.31,0003.14
2022-01-22 01:21:00,,0832.1,4.99,0.00,22.2,21.6,00.0,31.1,24.0,18.1,0000.0,0005.53,0003.31,0003.15
2022-01-22 01:22:00,,0832.1,5.00,0.00,22.2,21.6,00.0,31.1,24.0,18.1,-001.5,0005.74,0003.33,0003.17
2022-01-22 01:23:00,,0832.1,4.99,0.00,22.2,21.5,00.0,31.1,24.0,18.1,-001.6,0005.80,0003.34,0003.19
2022-01-22 01:24:00,,0832.1,5.01,0.00,22.2,21.9,00.0,31.2,24.0,18.1,-001.8,0005.99,0003.39,0003.21
2022-01-22 01:25:00,,0832.2,5.00,0.00,22.3,22.6,00.0,31.2,24.2,18.1,-001.9,0006.06,0003.41,0003.24
2022-01-22 01:26:00,,0832.2,5.00,0.00,22.4,23.1,00.0,31.2,24.4,18.0,-001.8,0006.01,0003.44,0003.28
2022-01-22 01:27:00,,0832.3,5.00,0.00,22.5,23.0,00.0,31.3,24.5,17.9,-002.4,0006.26,0003.49,0003.31
2022-01-22 01:28:00,,0832.3,5.00,0.00,22.5,22.8,00.0,31.3,24.5,17.9,-002.6,0006.24,0003.50,0003.33
2022-01-22 01:29:00,,0832.3,4.99,0.00,22.6,22.7,00.0,31.3,24.5,17.8,-002.2,0006.11,0003.51,0003.34
2022-01-22 01:30:00,,0832.3,5.00,0.00,22.6,22.5,00.0,31.3,24.5,17.8,-001.8,0006.21,0003.56,0003.37
2022-01-22 01:31:00,,0832.3,5.00,0.00,22.6,22.4,00.0,31.3,24.4,17.6,-001.7,0007.11,0003.67,0003.44
2022-01-22 01:32:00,,0832.3,5.01,0.00,22.5,22.3,00.0,31.3,24.4,17.6,-001.4,0007.34,0003.79,0003.50
2022-01-22 01:33:00,,0832.4,5.00,0.00,22.6,22.2,00.0,31.4,24.4,17.6,-001.4,0007.95,0003.92,0003.56
2022-01-22 01:34:00,,0832.4,4.98,0.00,22.5,22.2,00.0,31.4,24.4,17.6,-001.1,0008.51,0004.08,0003.63
2022-01-22 01:35:00,,0832.4,5.01,0.00,22.5,22.1,00.0,31.4,24.4,17.7,-000.1,0008.72,0004.15,0003.69
2022-01-22 01:36:00,,0832.4,4.99,0.00,22.5,22.1,00.0,31.4,24.3,17.7,-000.0,0008.95,0004.28,0003.76
2022-01-22 01:37:00,,0832.4,5.01,0.00,22.5,22.0,00.0,31.4,24.3,17.8,-000.3,0009.45,0004.40,0003.81
2022-01-22 01:38:00,,0832.5,4.99,0.00,22.5,22.0,00.0,31.4,24.3,17.8,-000.6,0009.98,0004.48,0003.87
2022-01-22 01:39:00,,0832.5,5.00,0.00,22.5,22.0,00.0,31.4,24.3,17.9,-000.4,0010.74,0004.59,0003.93
2022-01-22 01:40:00,,0832.5,5.01,0.00,22.5,21.9,00.0,31.4,24.3,17.9,-000.6,0011.59,0004.75,0004.01
2022-01-22 01:41:00,,0832.5,5.00,0.00,22.5,21.9,00.0,31.4,24.3,18.0,-000.9,0011.96,0004.85,0004.07
2022-01-22 01:42:00,,0832.5,5.01,0.00,22.5,21.9,00.0,31.4,24.3,18.0,-001.1,0011.99,0004.88,0004.12
2022-01-22 01:43:00,,0832.5,4.99,0.00,22.5,21.9,00.0,31.4,24.2,18.0,-001.9,0012.14,0004.87,0004.16
2022-01-22 01:44:00,,0832.6,5.01,0.00,22.5,21.8,00.0,31.4,24.2,18.0,-002.5,0011.63,0004.84,0004.20
2022-01-22 01:45:00,,0832.6,4.98,0.00,22.4,21.8,00.0,31.4,24.2,18.0,-003.0,0011.81,0004.83,0004.24
2022-01-22 01:46:00,,0832.6,5.02,0.00,22.4,21.8,00.0,31.4,24.1,18.2,-003.4,0011.99,0004.84,0004.27
2022-01-22 01:47:00,,0832.6,4.99,0.00,22.4,21.8,00.0,31.4,24.1,18.3,-003.3,0011.86,0004.81,0004.29
2022-01-22 01:48:00,,0832.6,5.01,0.00,22.3,21.7,00.0,31.4,24.0,18.5,-003.1,0011.53,0004.81,0004.32
2022-01-22 01:49:00,,0832.6,4.98,0.00,22.3,21.7,00.0,31.3,24.0,18.5,-003.1,0010.97,0004.81,0004.34
2022-01-22 01:50:00,,0832.6,5.01,0.00,22.3,21.7,00.0,31.3,24.0,18.6,-003.2,0010.32,0004.81,0004.37
2022-01-22 01:51:00,,0832.7,4.98,0.00,22.3,21.7,00.0,31.3,24.0,18.6,-003.1,0009.72,0004.79,0004.38
2022-01-22 01:52:00,,0832.7,5.01,0.00,22.3,21.7,00.0,31.3,24.0,18.7,-003.1,0009.28,0004.76,0004.40
2022-01-22 01:53:00,,0832.7,5.00,0.00,22.3,21.7,00.0,31.3,24.0,18.8,-003.0,0008.94,0004.77,0004.41
2022-01-22 01:54:00,,0832.7,5.00,0.00,22.2,21.7,00.0,31.3,24.0,18.8,-002.6,0008.67,0004.81,0004.42
2022-01-22 01:55:00,,0832.7,5.03,0.00,22.2,21.7,00.0,31.3,24.0,18.8,-002.5,0008.93,0004.84,0004.44
2022-01-22 01:56:00,,0832.7,4.99,0.00,22.2,21.6,00.0,31.3,24.0,18.8,-002.3,0008.51,0004.83,0004.45
2022-01-22 01:57:00,,0832.7,5.01,0.00,22.2,21.6,00.0,31.2,24.0,18.9,-002.1,0008.21,0004.85,0004.48
2022-01-22 01:58:00,,0832.7,4.99,0.00,22.2,21.6,00.0,31.2,24.0,18.9,-002.1,0008.24,0004.89,0004.50
2022-01-22 01:59:00,,0832.7,5.01,0.00,22.2,21.6,00.0,31.2,24.0,18.9,-002.0,0008.23,0004.90,0004.52
